Location: Cartignies
(50.0929°N, 3.8447°E)
Time: 14:19:18
(UTC+00:00)

USA 238 DEB - Pass Details

Date: 12 January 2026
Orbit: 883 x 1328 km, 63.4° (Epoch: 10 January)

Event Time Altitude Azimuth Distance (km) Brightness Sun altitude
Rises 16:46:08 0° 313° (NW) 3,861 6.9 -6.3°
Reaches altitude 10° 16:48:48 10° 319° (NW) 2,968 6.2 -6.7°
Maximum altitude 16:55:42 49° 33° (NNE) 1,507 4.2 -7.7°
Drops below altitude 10° 17:03:17 10° 107° (ESE) 3,256 5.8 -8.8°
Sets 17:06:20 0° 113° (ESE) 4,265 6.4 -9.3°
